Regional Weather Roundup
Issued by NWS Cleveland, OH

Home | Current Version | Previous Version | Graphics & Text | Print | Product List | Glossary On
Versions: 1 2 3 4 5 6 7 8 9 10 11 12 13 14 15 16 17 18 19 20 21 22 23 24 25 26 27 28 29 30 31 32 33 34 35 36 37 38 39 40 41 42 43 44 45 46 47 48 49 50
845
ASUS41 KCLE 191410
RWRCLE
OHIO REGIONAL WEATHER ROUNDUP
NATIONAL WEATHER SERVICE WILMINGTON, OH
1000 AM EDT TUE SEP 19 2017

NOTE: "FAIR" INDICATES FEW OR NO CLOUDS BELOW 12,000 FEET WITH NO
SIGNIFICANT WEATHER AND/OR OBSTRUCTIONS TO VISIBILITY.

OHZ001>008-015>018-024>027-034-035-043-044-191500-
   NORTHWEST OHIO

CITY           SKY/WX    TMP DP  RH WIND       PRES   REMARKS
DEFIANCE       RAIN      66  65  96 NE7       29.98S FOG
FINDLAY        LGT RAIN  69  66  90 W6        30.00R FOG
TOLEDO EXPRESS TSTM      67  32  27 NW6       30.00R
TOLEDO EXEC    CLOUDY    70  68  93 NE6       30.00R FOG
LIMA           LGT RAIN  69  68  96 VRB3      29.99S
$$

OHZ009>014-019>023-028>033-038-089-191500-
   NORTHEAST OHIO

CITY           SKY/WX    TMP DP  RH WIND       PRES   REMARKS
CLE-HOPKINS    CLOUDY    73  63  70 CALM      30.02R
CLE-LAKEFRONT  PTSUNNY   74  62  66 S8        29.99S
CUY CO. ARPT   PTSUNNY   77  66  69 S8        30.02R
LORAIN-ELYRIA  LGT RAIN  67  60  78 S8        30.01R
ASHTABULA      FAIR      71  66  84 S10       30.04S
AKRON-CANTON   FAIR      74  64  71 SE6       30.03R
WOOSTER        CLOUDY    69  65  86 CALM      30.03R
MANSFIELD      CLOUDY    73  64  73 SE10      30.02R
YOUNGSTOWN     CLOUDY    69  65  86 SE8       30.05R
$$

OHZ042-051>053-060>062-070>072-077>081-191500-
  SOUTHWEST OHIO

CITY           SKY/WX    TMP DP  RH WIND       PRES   REMARKS
CINC-COVINGTON CLOUDY    69  69 100 SW8       30.01R
CINC-LUNKEN    CLOUDY    70  69  97 CALM      30.01R
HAMILTON       PTSUNNY   72  69  90 CALM      30.01R
DAYTON         LGT RAIN  69  65  86 S8        30.00S FOG
WRIGHT-PAT AFB PTSUNNY   71  69  96 S6        29.99R
DAYTON GENERAL CLOUDY    71  63  75 S7        30.00R
WILMINGTON     CLOUDY    71  66  84 S7        30.00R
$$

OHZ036-037-039>041-045>050-054>059-063>069-073>076-082>088-191500-
  CENTRAL AND SOUTHEAST OHIO

CITY           SKY/WX    TMP DP  RH WIND       PRES   REMARKS
COLUMBUS       CLOUDY    73  66  78 SE5       30.00R
OSU AIRPORT    CLOUDY    72  66  81 SE6       30.00S
BOLTON FIELD   CLOUDY    72  66  83 SE3       30.01S
RICKENBACK AFB CLOUDY    70  67  90 CALM      30.01R
NEWARK         CLOUDY    71  64  78 CALM      30.02R
MARION         CLOUDY    71  64  78 S8        30.00S
LANCASTER      CLOUDY    71  66  84 SE7       30.02R
ZANESVILLE     CLOUDY    69  64  84 CALM      30.02R
NEW PHILLY     FAIR      71  65  81 SE3       30.03R
$$




USA.gov is the U.S. government's official web portal to all federal, state and local government web resources and services.